• In Hungary
  • List of Countries
  • For 7 days
  • Water Temperature
  • Satellite Maps
  • Weather Map
  • News
  • Weather Widgets
  • user-avatar
    Login

    Hourly Weather Satif

    Today, 17 January, Wednesday

    Time Temperature Precipitation Wind Pressure Humidity
    00:00 +5°C° 0 mm 2 mps 675 mmHg 62%
    01:00 +5°C° 0 mm 2 mps 675 mmHg 62%
    02:00 +5°C° 0 mm 2 mps 674 mmHg 62%
    03:00 +5°C° 0 mm 2 mps 674 mmHg 63%
    04:00 +4°C° 0 mm 2 mps 674 mmHg 63%
    05:00 +4°C° 0 mm 2 mps 674 mmHg 63%
    06:00 +4°C° 0 mm 2 mps 674 mmHg 63%
    07:00 +6°C° 0 mm 2 mps 674 mmHg 57%
    08:00 +8°C° 0 mm 2 mps 675 mmHg 50%
    09:00 +10°C° 0 mm 1 mps 675 mmHg 44%
    10:00 +12°C° 0 mm 2 mps 675 mmHg 39%
    11:00 +12°C° 0 mm 3 mps 676 mmHg 35%
    12:00 +13°C° 0 mm 3 mps 676 mmHg 30%
    13:00 +13°C° 0 mm 3 mps 676 mmHg 34%
    14:00 +13°C° 0 mm 4 mps 676 mmHg 38%
    15:00 +13°C° 0 mm 4 mps 676 mmHg 42%
    16:00 +11°C° 0 mm 3 mps 675 mmHg 52%
    17:00 +9°C° 0 mm 3 mps 675 mmHg 62%
    18:00 +7°C° 0 mm 2 mps 675 mmHg 72%
    19:00 +7°C° 0 mm 2 mps 675 mmHg 77%
    20:00 +6°C° 0 mm 2 mps 675 mmHg 81%
    21:00 +6°C° 0 mm 1 mps 676 mmHg 85%
    22:00 +6°C° 0 mm 1 mps 676 mmHg 86%
    23:00 +5°C° 0 mm 1 mps 676 mmHg 87%

    Tomorrow, 18 January, Thursday

    Time Temperature Precipitation Wind Pressure Humidity
    00:00 +5°C° 0 mm 1 mps 676 mmHg 88%
    01:00 +5°C° 0 mm 1 mps 676 mmHg 88%
    02:00 +4°C° 0 mm 1 mps 676 mmHg 88%
    03:00 +4°C° 0 mm 1 mps 675 mmHg 88%
    04:00 +4°C° 0 mm 1 mps 675 mmHg 88%
    05:00 +4°C° 0 mm 1 mps 675 mmHg 88%
    06:00 +3°C° 0 mm 1 mps 675 mmHg 87%
    07:00 +5°C° 0 mm 1 mps 676 mmHg 81%
    08:00 +6°C° 0 mm 2 mps 677 mmHg 74%
    09:00 +7°C° 0 mm 2 mps 677 mmHg 68%
    10:00 +9°C° 0 mm 3 mps 677 mmHg 60%
    11:00 +10°C° 0 mm 3 mps 677 mmHg 53%
    12:00 +12°C° 0 mm 4 mps 678 mmHg 45%
    13:00 +12°C° 0 mm 4 mps 677 mmHg 46%
    14:00 +12°C° 0 mm 4 mps 676 mmHg 47%
    15:00 +12°C° 0 mm 4 mps 676 mmHg 48%
    16:00 +10°C° 0 mm 3 mps 675 mmHg 54%
    17:00 +9°C° 0 mm 3 mps 675 mmHg 61%
    18:00 +7°C° 0 mm 3 mps 674 mmHg 68%
    19:00 +7°C° 0 mm 3 mps 674 mmHg 71%
    20:00 +5°C° 0 mm 3 mps 674 mmHg 74%
    21:00 +5°C° 0 mm 3 mps 674 mmHg 77%
    22:00 +4°C° 0 mm 3 mps 674 mmHg 79%
    23:00 +4°C° 0 mm 3 mps 673 mmHg 82%

    Day after tomorrow, 19 January, Friday

    Time Temperature Precipitation Wind Pressure Humidity
    00:00 +3°C° 0 mm 3 mps 673 mmHg 85%
    01:00 +3°C° 0 mm 3 mps 672 mmHg 85%
    02:00 +4°C° 0 mm 2 mps 672 mmHg 86%
    03:00 +4°C° 0 mm 2 mps 672 mmHg 87%
    04:00 +4°C° 0 mm 2 mps 671 mmHg 86%
    05:00 +3°C° 0 mm 2 mps 671 mmHg 86%
    06:00 +3°C° 0 mm 2 mps 671 mmHg 85%
    07:00 +5°C° 0 mm 2 mps 671 mmHg 77%
    08:00 +7°C° 0 mm 1 mps 672 mmHg 69%
    09:00 +8°C° 0 mm 1 mps 672 mmHg 62%
    10:00 +10°C° 0 mm 1 mps 672 mmHg 55%
    11:00 +11°C° 0 mm 1 mps 672 mmHg 49%
    12:00 +12°C° 0 mm 1 mps 672 mmHg 43%
    13:00 +12°C° 0 mm 1 mps 671 mmHg 43%
    14:00 +13°C° 0 mm 1 mps 671 mmHg 44%
    15:00 +13°C° 0 mm 2 mps 670 mmHg 44%
    16:00 +12°C° 0 mm 2 mps 670 mmHg 52%
    17:00 +9°C° 0 mm 2 mps 670 mmHg 61%
    18:00 +8°C° 0 mm 3 mps 670 mmHg 70%
    19:00 +8°C° 0 mm 3 mps 670 mmHg 75%
    20:00 +7°C° 0 mm 3 mps 671 mmHg 80%
    21:00 +7°C° 0 mm 2 mps 671 mmHg 85%
    22:00 +6°C° 0 mm 2 mps 671 mmHg 87%
    23:00 +5°C° 0 mm 3 mps 671 mmHg 89%

    20 January, Saturday

    Time Temperature Precipitation Wind Pressure Humidity
    00:00 +5°C° 0 mm 3 mps 671 mmHg 91%
    01:00 +5°C° 0 mm 3 mps 671 mmHg 91%
    02:00 +4°C° 0 mm 3 mps 671 mmHg 91%
    03:00 +4°C° 0 mm 3 mps 671 mmHg 91%
    04:00 +4°C° 0.1 mm 3 mps 671 mmHg 91%
    05:00 +4°C° 0.1 mm 3 mps 671 mmHg 91%
    06:00 +4°C° 0.1 mm 3 mps 672 mmHg 91%
    07:00 +5°C° 0.1 mm 3 mps 672 mmHg 87%
    08:00 +5°C° 0.1 mm 3 mps 673 mmHg 83%
    09:00 +7°C° 0.1 mm 3 mps 673 mmHg 79%
    10:00 +7°C° 0.1 mm 3 mps 673 mmHg 76%
    11:00 +7°C° 0.1 mm 3 mps 673 mmHg 73%
    12:00 +8°C° 0.1 mm 3 mps 674 mmHg 71%
    13:00 +8°C° 0.1 mm 3 mps 673 mmHg 69%
    14:00 +8°C° 0.1 mm 3 mps 673 mmHg 68%
    15:00 +8°C° 0.1 mm 3 mps 673 mmHg 67%
    16:00 +7°C° 0.1 mm 3 mps 673 mmHg 71%
    17:00 +7°C° 0.1 mm 3 mps 673 mmHg 75%
    18:00 +6°C° 0.1 mm 2 mps 674 mmHg 79%
    19:00 +5°C° 0 mm 2 mps 674 mmHg 81%
    20:00 +5°C° 0 mm 2 mps 674 mmHg 84%
    21:00 +4°C° 0 mm 2 mps 674 mmHg 87%
    22:00 +4°C° 0 mm 2 mps 673 mmHg 86%
    23:00 +4°C° 0 mm 2 mps 673 mmHg 85%

    21 January, Sunday

    Time Temperature Precipitation Wind Pressure Humidity
    00:00 +2°C° 0 mm 3 mps 673 mmHg 84%
    01:00 +3°C° 0 mm 2 mps 673 mmHg 81%
    02:00 +3°C° 0 mm 2 mps 673 mmHg 78%
    03:00 +3°C° 0 mm 2 mps 673 mmHg 76%
    04:00 +3°C° 0 mm 2 mps 673 mmHg 73%
    05:00 +4°C° 0 mm 2 mps 673 mmHg 71%
    06:00 +4°C° 0 mm 2 mps 673 mmHg 68%
    07:00 +4°C° 0 mm 3 mps 674 mmHg 66%
    08:00 +5°C° 0 mm 3 mps 674 mmHg 64%
    09:00 +8°C° 0 mm 3 mps 675 mmHg 62%
    10:00 +8°C° 0 mm 3 mps 675 mmHg 63%
    11:00 +8°C° 0 mm 4 mps 676 mmHg 63%
    12:00 +9°C° 0 mm 5 mps 676 mmHg 64%
    13:00 +9°C° 0 mm 5 mps 676 mmHg 66%
    14:00 +9°C° 0 mm 5 mps 676 mmHg 67%
    15:00 +10°C° 0 mm 4 mps 676 mmHg 69%
    16:00 +8°C° 0.1 mm 4 mps 676 mmHg 75%
    17:00 +9°C° 0.1 mm 3 mps 677 mmHg 81%
    18:00 +8°C° 0.1 mm 2 mps 677 mmHg 87%
    19:00 +7°C° 0.1 mm 2 mps 677 mmHg 89%
    20:00 +7°C° 0.1 mm 2 mps 678 mmHg 90%
    21:00 +7°C° 0.1 mm 2 mps 678 mmHg 92%
    22:00 +7°C° 0 mm 2 mps 678 mmHg 92%
    23:00 +7°C° 0 mm 2 mps 678 mmHg 92%

    22 January, Monday

    Time Temperature Precipitation Wind Pressure Humidity
    00:00 +7°C° 0 mm 1 mps 678 mmHg 92%
    01:00 +7°C° 0 mm 1 mps 678 mmHg 92%
    02:00 +7°C° 0 mm 1 mps 678 mmHg 92%
    03:00 +6°C° 0 mm 1 mps 677 mmHg 92%
    04:00 +6°C° 0 mm 1 mps 677 mmHg 91%
    05:00 +6°C° 0 mm 1 mps 677 mmHg 90%
    06:00 +5°C° 0 mm 1 mps 677 mmHg 89%
    07:00 +7°C° 0 mm 1 mps 678 mmHg 82%
    08:00 +9°C° 0 mm 1 mps 679 mmHg 75%
    09:00 +10°C° 0 mm 1 mps 679 mmHg 68%
    10:00 +12°C° 0 mm 2 mps 679 mmHg 62%
    11:00 +13°C° 0 mm 2 mps 679 mmHg 57%
    12:00 +14°C° 0 mm 2 mps 679 mmHg 51%
    13:00 +14°C° 0 mm 2 mps 679 mmHg 50%
    14:00 +14°C° 0 mm 2 mps 679 mmHg 50%
    15:00 +15°C° 0 mm 2 mps 679 mmHg 49%
    16:00 +13°C° 0 mm 2 mps 678 mmHg 56%
    17:00 +10°C° 0 mm 2 mps 678 mmHg 64%
    18:00 +10°C° 0 mm 1 mps 678 mmHg 71%
    19:00 +9°C° 0 mm 1 mps 678 mmHg 74%
    20:00 +9°C° 0 mm 1 mps 678 mmHg 76%
    21:00 +8°C° 0 mm 1 mps 678 mmHg 78%
    22:00 +8°C° 0 mm 1 mps 677 mmHg 79%
    23:00 +8°C° 0 mm 1 mps 677 mmHg 80%
    Show more